(230576) = 2003 BE88 = 1996 AP11

Discovered at Socorro on 2003-01-27 by LINEAR.

Orbit

Orbit type: Main Belt

Note: WebGL enabled browser required.

epoch2024-03-31.0
epoch JD2460400.5
perihelion date2023-06-13.40865
perihelion JD2460108.90865
argument of perihelion (°)146.15323
ascending node (°)256.52834
inclination (°)6.20734
eccentricity0.1509015
perihelion distance (AU)1.9604848
Tisserand w.r.t. Jupiter3.6
ΔV w.r.t. Earth (km/sec)8.9
semimajor axis (AU)2.3089014
mean anomaly (°)81.91631
mean daily motion (°/day)0.28092850
aphelion distance (AU)2.657
period (years)3.51
P-vector [x]0.73195716
P-vector [y]0.59872467
P-vector [z]0.32521914
Q-vector [x]-0.67318783
Q-vector [y]0.70915174
Q-vector [z]0.20957565
absolute magnitude16.99
phase slope0.15
uncertainty0
referenceMPEC 2024-C60
observations used795
oppositions16
arc length (days)10249
first opposition used1996
last opposition used2024
residual rms (arc-secs)0.65
perturbers coarse indicatorM-v
perturbers precise indicator003Ek
first observation date used1996-01-14.0
last observation date used2024-02-05.0
computer nameMPCLINUX
JD of orbit computation2456760.795962
perihelion JD uncertainty (days)8.2490E-05
argument of perihelion uncertainty (°)6.6906E-05
ascending node uncertainty (°)6.1298E-05
inclination uncertainty (°)6.7218E-06
eccentricity uncertainty 8.5975E-08
perihelion distance uncertainty (AU)2.0469E-07
Minimum Orbit Intersection Distances (in AU)
for orbit epoch: 2460200.5, reference: E2024-C60
Mercury1.64107
Venus1.24199
Earth0.97207
Mars0.46724
Jupiter2.7228
Saturn6.9242
Uranus15.9376
Neptune27.8692

Observations

808 total observations over interval: 1996 01 14.25628 – 2024 02 05.174894
These data are available for download (format description).

Date (UT) J2000 RA J2000 Dec Magn Location Ref
1996 01 14.25628 09 16 53.37 +07 07 16.0   691 – Steward Observatory, Kitt Peak-Spacewatch MPC 26675
1996 01 14.27719 09 16 52.22 +07 07 16.0 19.8 V 691 – Steward Observatory, Kitt Peak-Spacewatch MPC 26675
1996 01 14.29816 09 16 51.11 +07 07 16.4   691 – Steward Observatory, Kitt Peak-Spacewatch MPC 26675
1996 01 14.31211 09 16 50.34 +07 07 16.6   691 – Steward Observatory, Kitt Peak-Spacewatch MPC 26675
1996 01 14.33599 09 16 49.07 +07 07 16.3 19.9 V 691 – Steward Observatory, Kitt Peak-Spacewatch MPC 26675
1996 01 14.35693 09 16 47.90 +07 07 16.6   691 – Steward Observatory, Kitt Peak-Spacewatch MPC 26675
1996 01 21.27966 09 10 17.72 +07 12 06.5   691 – Steward Observatory, Kitt Peak-Spacewatch MPC 26675
1996 01 21.30907 09 10 15.88 +07 12 09.2 19.5 V 691 – Steward Observatory, Kitt Peak-Spacewatch MPC 26675
1996 01 21.33018 09 10 14.57 +07 12 10.9   691 – Steward Observatory, Kitt Peak-Spacewatch MPC 26675
1998 11 15.32131 01 49 58.34 +18 38 29.4 18.8 R 699 – Lowell Observatory-LONEOS MPS 155279
1998 11 15.34122 01 49 57.56 +18 38 18.0   699 – Lowell Observatory-LONEOS MPS 155279
1998 11 15.36109 01 49 56.79 +18 38 07.8   699 – Lowell Observatory-LONEOS MPS 155279
2003 01 08.37920 09 07 59.04 +08 20 15.0 19.3   704 – Lincoln Laboratory ETS, New Mexico MPS 81547
2003 01 08.40857 09 07 57.61 +08 20 13.1 20.2   704 – Lincoln Laboratory ETS, New Mexico MPS 81547
2003 01 08.42334 09 07 56.90 +08 20 12.6 19.9   704 – Lincoln Laboratory ETS, New Mexico MPS 81547
2003 01 27.31362 08 49 22.27 +08 36 18.4 19.5   704 – Lincoln Laboratory ETS, New Mexico MPS 74345
2003 01 27.32971 08 49 21.09 +08 36 20.9 19.9   704 – Lincoln Laboratory ETS, New Mexico MPS 74345
2003 01 27.34477 08 49 20.09 +08 36 22.2 19.9   704 – Lincoln Laboratory ETS, New Mexico MPS 74345
2003 01 27.35994 08 49 19.02 +08 36 24.9 20.0   704 – Lincoln Laboratory ETS, New Mexico MPS 74345
2003 01 27.37466 08 49 18.15 +08 36 26.1 20.1   704 – Lincoln Laboratory ETS, New Mexico MPS 74345
2003 02 02.33074 08 42 49.59 +08 51 34.8 19.7   704 – Lincoln Laboratory ETS, New Mexico MPS 74345
2003 02 02.34482 08 42 48.68 +08 51 37.6 19.8   704 – Lincoln Laboratory ETS, New Mexico MPS 74345
2003 02 02.37278 08 42 46.79 +08 51 42.9 19.7   704 – Lincoln Laboratory ETS, New Mexico MPS 74345
2005 09 18.39945 02 06 39.96 +22 51 02.0 19.9 R 644 – Palomar Mountain/NEAT MPS 155279
2005 09 18.42099 02 06 39.70 +22 51 03.5 19.5 R 644 – Palomar Mountain/NEAT MPS 155279
2005 09 18.44320 02 06 39.51 +22 51 04.2 19.5 R 644 – Palomar Mountain/NEAT MPS 155279
2005 09 30.36836 02 02 39.51 +22 40 51.7 19.2 V 703 – Catalina Sky Survey MPS 155279
2005 09 30.37765 02 02 39.19 +22 40 50.6 19.2 V 703 – Catalina Sky Survey MPS 155279
2005 09 30.38699 02 02 38.86 +22 40 49.3 19.0 V 703 – Catalina Sky Survey MPS 155279
2005 09 30.39625 02 02 38.50 +22 40 48.1 19.2 V 703 – Catalina Sky Survey MPS 155279
2005 10 03.27516 02 01 00.02 +22 32 13.2 19.3   704 – Lincoln Laboratory ETS, New Mexico MPS 155279
2005 10 03.28595 02 00 59.57 +22 32 11.1 19.3   704 – Lincoln Laboratory ETS, New Mexico MPS 155279
2005 10 03.29673 02 00 59.12 +22 32 08.8 19.4   704 – Lincoln Laboratory ETS, New Mexico MPS 155279
2005 10 03.30752 02 00 58.66 +22 32 06.5 19.7   704 – Lincoln Laboratory ETS, New Mexico MPS 155279
2005 10 08.25922 01 57 37.31 +22 11 38.4 18.7   704 – Lincoln Laboratory ETS, New Mexico MPS 147446
2005 10 08.27026 01 57 36.78 +22 11 35.0 19.4   704 – Lincoln Laboratory ETS, New Mexico MPS 147446
2005 10 08.28108 01 57 36.30 +22 11 32.1 19.8   704 – Lincoln Laboratory ETS, New Mexico MPS 147446
2005 10 08.29191 01 57 35.73 +22 11 29.6 18.8   704 – Lincoln Laboratory ETS, New Mexico MPS 147446
2005 10 08.30278 01 57 35.23 +22 11 26.2 18.8   704 – Lincoln Laboratory ETS, New Mexico MPS 147446
2005 10 10.29540 01 56 04.53 +22 01 10.5 18.6 R 699 – Lowell Observatory-LONEOS MPS 147446
2005 10 10.32282 01 56 03.26 +22 01 02.6   699 – Lowell Observatory-LONEOS MPS 147446
2005 10 10.35021 01 56 01.88 +22 00 53.8   699 – Lowell Observatory-LONEOS MPS 147446
2005 10 10.37763 01 56 00.50 +22 00 44.9   699 – Lowell Observatory-LONEOS MPS 147446
2005 10 13.25922 01 53 41.86 +21 43 58.0 18.7   704 – Lincoln Laboratory ETS, New Mexico MPS 147446
2005 10 13.27011 01 53 41.27 +21 43 54.0 19.5   704 – Lincoln Laboratory ETS, New Mexico MPS 147446
2005 10 13.28101 01 53 40.77 +21 43 50.1 19.5   704 – Lincoln Laboratory ETS, New Mexico MPS 147446
2005 10 13.29189 01 53 40.08 +21 43 44.6 19.8   704 – Lincoln Laboratory ETS, New Mexico MPS 147446
2005 10 13.30278 01 53 39.52 +21 43 42.4 19.2   704 – Lincoln Laboratory ETS, New Mexico MPS 147446
2005 10 14.18446 01 52 55.88 +21 38 08.3 18.6 R 699 – Lowell Observatory-LONEOS MPS 147446
2005 10 14.20631 01 52 54.69 +21 37 57.2   699 – Lowell Observatory-LONEOS MPS 147446
2005 10 14.22821 01 52 53.67 +21 37 48.9   699 – Lowell Observatory-LONEOS MPS 147446
2005 10 14.25014 01 52 52.43 +21 37 41.6   699 – Lowell Observatory-LONEOS MPS 147446
2005 10 23.31587 01 44 55.96 +20 29 44.3 18.6 V 703 – Catalina Sky Survey MPS 147446
2005 10 23.32575 01 44 55.42 +20 29 39.6 18.7 V 703 – Catalina Sky Survey MPS 147446
2005 10 23.33559 01 44 54.81 +20 29 34.5 18.6 V 703 – Catalina Sky Survey MPS 147446
2005 10 23.34544 01 44 54.31 +20 29 29.4 18.6 V 703 – Catalina Sky Survey MPS 147446
2005 10 26.23130 01 42 21.74 +20 04 31.9 18.2 R 699 – Lowell Observatory-LONEOS MPS 147446
2005 10 26.25322 01 42 20.53 +20 04 20.4   699 – Lowell Observatory-LONEOS MPS 147446
2005 10 26.27514 01 42 19.29 +20 04 09.1   699 – Lowell Observatory-LONEOS MPS 147446
2005 10 29.29590 01 39 43.20 +19 36 49.0 18.6 V 703 – Catalina Sky Survey MPS 147446
2005 10 29.30126 01 39 42.84 +19 36 45.4 18.4 V 703 – Catalina Sky Survey MPS 147446
2005 10 29.30663 01 39 42.55 +19 36 42.5 18.4 V 703 – Catalina Sky Survey MPS 147446
2005 10 30.25812 01 38 54.84 +19 27 55.1 18.4   704 – Lincoln Laboratory ETS, New Mexico MPS 147446
2005 10 30.27014 01 38 54.20 +19 27 49.0 18.8   704 – Lincoln Laboratory ETS, New Mexico MPS 147446
2005 10 30.28227 01 38 53.56 +19 27 41.9 18.9   704 – Lincoln Laboratory ETS, New Mexico MPS 147446
2005 10 30.29419 01 38 52.92 +19 27 34.2 19.0   704 – Lincoln Laboratory ETS, New Mexico MPS 147446
2005 10 30.30625 01 38 52.32 +19 27 28.8 18.6   704 – Lincoln Laboratory ETS, New Mexico MPS 147446
2005 11 02.20776 01 36 31.85 +19 00 10.8 18.4   704 – Lincoln Laboratory ETS, New Mexico MPS 147446
2005 11 02.21975 01 36 31.29 +19 00 03.7 18.9   704 – Lincoln Laboratory ETS, New Mexico MPS 147446
2005 11 02.23175 01 36 30.65 +18 59 57.2 19.1   704 – Lincoln Laboratory ETS, New Mexico MPS 147446
2005 11 02.24380 01 36 30.03 +18 59 50.6 19.0   704 – Lincoln Laboratory ETS, New Mexico MPS 147446
2005 11 02.25584 01 36 29.40 +18 59 43.9 18.9   704 – Lincoln Laboratory ETS, New Mexico MPS 147446
2005 11 05.27712 01 34 13.15 +18 31 01.5 18.7 V 703 – Catalina Sky Survey MPS 149485
2005 11 05.28250 01 34 12.90 +18 30 57.8 18.7 V 703 – Catalina Sky Survey MPS 149485
2005 11 05.28792 01 34 12.64 +18 30 54.3 18.8 V 703 – Catalina Sky Survey MPS 149485
2005 11 05.29331 01 34 12.43 +18 30 51.5 18.6 V 703 – Catalina Sky Survey MPS 149485
2005 12 01.06484 01 25 49.29 +15 01 31.8 19.5 R 699 – Lowell Observatory-LONEOS MPS 152028
2005 12 01.08859 01 25 49.54 +15 01 25.0   699 – Lowell Observatory-LONEOS MPS 152028
2005 12 01.11429 01 25 49.61 +15 01 15.8   699 – Lowell Observatory-LONEOS MPS 152028
2005 12 01.13797 01 25 49.64 +15 01 07.0   699 – Lowell Observatory-LONEOS MPS 152028
2005 12 02.29017 01 25 58.98 +14 54 37.5 19.4 V 703 – Catalina Sky Survey MPS 153650
2005 12 02.29951 01 25 59.05 +14 54 35.3 19.6 V 703 – Catalina Sky Survey MPS 153650
2005 12 02.30863 01 25 59.08 +14 54 31.7 19.4 V 703 – Catalina Sky Survey MPS 153650
2005 12 02.31835 01 25 59.19 +14 54 28.6 19.5 V 703 – Catalina Sky Survey MPS 153650
2006 01 06.09374 01 50 37.46 +14 01 04.2 20.4 V G96 – Mt. Lemmon Survey MPS 158929
2006 01 06.10238 01 50 38.04 +14 01 05.3 20.4 V G96 – Mt. Lemmon Survey MPS 158929
2006 01 06.11103 01 50 38.65 +14 01 06.6 20.3 V G96 – Mt. Lemmon Survey MPS 158929
2006 01 06.11966 01 50 39.26 +14 01 07.3 20.8 V G96 – Mt. Lemmon Survey MPS 158929
